• In Hungary
  • List of Countries
  • For 7 days
  • Water Temperature
  • Satellite Maps
  • Weather Map
  • News
  • Weather Widgets
  • user-avatar
    Login

    Hourly Weather Naftalan

    Today, 26 September, Tuesday

    Time Temperature Precipitation Wind Pressure Humidity
    00:00 +22°C° 0 mm 7 mps 767 mmHg 60%
    01:00 +22°C° 0 mm 6 mps 767 mmHg 62%
    02:00 +21°C° 0 mm 6 mps 767 mmHg 64%
    03:00 +21°C° 0 mm 5 mps 767 mmHg 66%
    04:00 +21°C° 0 mm 5 mps 767 mmHg 68%
    05:00 +21°C° 0 mm 6 mps 767 mmHg 70%
    06:00 +20°C° 0 mm 6 mps 767 mmHg 72%
    07:00 +21°C° 0.1 mm 6 mps 767 mmHg 68%
    08:00 +22°C° 0.1 mm 6 mps 767 mmHg 64%
    09:00 +23°C° 0.1 mm 6 mps 767 mmHg 60%
    10:00 +24°C° 0 mm 6 mps 767 mmHg 58%
    11:00 +24°C° 0 mm 6 mps 766 mmHg 56%
    12:00 +26°C° 0 mm 6 mps 766 mmHg 54%
    13:00 +26°C° 0 mm 6 mps 766 mmHg 55%
    14:00 +24°C° 0 mm 6 mps 766 mmHg 56%
    15:00 +24°C° 0 mm 7 mps 766 mmHg 56%
    16:00 +24°C° 0 mm 7 mps 766 mmHg 58%
    17:00 +23°C° 0 mm 7 mps 766 mmHg 60%
    18:00 +23°C° 0 mm 7 mps 767 mmHg 61%
    19:00 +22°C° 0.1 mm 7 mps 767 mmHg 62%
    20:00 +22°C° 0.1 mm 7 mps 767 mmHg 62%
    21:00 +22°C° 0.1 mm 7 mps 767 mmHg 63%
    22:00 +22°C° 0.1 mm 7 mps 767 mmHg 64%
    23:00 +21°C° 0.1 mm 7 mps 767 mmHg 64%

    Tomorrow, 27 September, Wednesday

    Time Temperature Precipitation Wind Pressure Humidity
    00:00 +21°C° 0.1 mm 7 mps 767 mmHg 65%
    01:00 +21°C° 0.1 mm 7 mps 767 mmHg 66%
    02:00 +21°C° 0.1 mm 7 mps 766 mmHg 67%
    03:00 +21°C° 0.1 mm 7 mps 766 mmHg 68%
    04:00 +21°C° 0.1 mm 6 mps 766 mmHg 68%
    05:00 +21°C° 0.1 mm 6 mps 766 mmHg 68%
    06:00 +21°C° 0.1 mm 6 mps 766 mmHg 69%
    07:00 +21°C° 0.3 mm 6 mps 766 mmHg 68%
    08:00 +21°C° 0.3 mm 6 mps 766 mmHg 67%
    09:00 +22°C° 0.3 mm 6 mps 766 mmHg 66%
    10:00 +21°C° 0.4 mm 7 mps 766 mmHg 68%
    11:00 +21°C° 0.4 mm 7 mps 766 mmHg 70%
    12:00 +21°C° 0.4 mm 7 mps 766 mmHg 72%
    13:00 +20°C° 0.4 mm 8 mps 766 mmHg 73%
    14:00 +20°C° 0.4 mm 8 mps 766 mmHg 73%
    15:00 +19°C° 0.4 mm 9 mps 765 mmHg 73%
    16:00 +19°C° 0.2 mm 9 mps 766 mmHg 73%
    17:00 +20°C° 0.2 mm 8 mps 766 mmHg 73%
    18:00 +20°C° 0.2 mm 8 mps 766 mmHg 73%
    19:00 +20°C° 0.9 mm 8 mps 766 mmHg 75%
    20:00 +20°C° 0.9 mm 8 mps 766 mmHg 77%
    21:00 +18°C° 0.9 mm 8 mps 767 mmHg 79%
    22:00 +18°C° 1.1 mm 9 mps 767 mmHg 80%
    23:00 +18°C° 1.1 mm 9 mps 767 mmHg 80%

    Day after tomorrow, 28 September, Thursday

    Time Temperature Precipitation Wind Pressure Humidity
    00:00 +18°C° 1.1 mm 9 mps 767 mmHg 80%
    01:00 +18°C° 0.6 mm 9 mps 767 mmHg 80%
    02:00 +18°C° 0.6 mm 9 mps 767 mmHg 80%
    03:00 +17°C° 0.6 mm 9 mps 767 mmHg 79%
    04:00 +17°C° 0.5 mm 9 mps 767 mmHg 80%
    05:00 +17°C° 0.5 mm 8 mps 767 mmHg 81%
    06:00 +17°C° 0.5 mm 8 mps 768 mmHg 81%
    07:00 +17°C° 0.5 mm 8 mps 768 mmHg 80%
    08:00 +17°C° 0.5 mm 8 mps 769 mmHg 79%
    09:00 +17°C° 0.5 mm 8 mps 769 mmHg 78%
    10:00 +17°C° 0.5 mm 8 mps 770 mmHg 77%
    11:00 +17°C° 0.5 mm 8 mps 770 mmHg 76%
    12:00 +17°C° 0.5 mm 8 mps 770 mmHg 75%
    13:00 +17°C° 0.6 mm 9 mps 770 mmHg 75%
    14:00 +17°C° 0.6 mm 9 mps 770 mmHg 75%
    15:00 +16°C° 0.6 mm 9 mps 770 mmHg 75%
    16:00 +16°C° 0.5 mm 9 mps 770 mmHg 75%
    17:00 +16°C° 0.5 mm 9 mps 770 mmHg 76%
    18:00 +16°C° 0.5 mm 10 mps 771 mmHg 76%
    19:00 +16°C° 0.5 mm 9 mps 771 mmHg 75%
    20:00 +16°C° 0.5 mm 9 mps 771 mmHg 74%
    21:00 +16°C° 0.5 mm 8 mps 771 mmHg 73%
    22:00 +16°C° 0.4 mm 8 mps 771 mmHg 73%
    23:00 +16°C° 0.4 mm 7 mps 771 mmHg 72%

    29 September, Friday

    Time Temperature Precipitation Wind Pressure Humidity
    00:00 +16°C° 0.4 mm 7 mps 771 mmHg 71%
    01:00 +16°C° 0.3 mm 6 mps 770 mmHg 71%
    02:00 +16°C° 0.3 mm 6 mps 770 mmHg 71%
    03:00 +16°C° 0.3 mm 6 mps 770 mmHg 71%
    04:00 +16°C° 0.5 mm 5 mps 770 mmHg 71%
    05:00 +16°C° 0.5 mm 5 mps 770 mmHg 71%
    06:00 +16°C° 0.5 mm 5 mps 770 mmHg 71%
    07:00 +16°C° 0.5 mm 5 mps 770 mmHg 71%
    08:00 +17°C° 0.5 mm 5 mps 770 mmHg 71%
    09:00 +18°C° 0.5 mm 4 mps 770 mmHg 71%
    10:00 +18°C° 0.1 mm 4 mps 769 mmHg 70%
    11:00 +18°C° 0.1 mm 4 mps 769 mmHg 68%
    12:00 +19°C° 0.1 mm 3 mps 768 mmHg 66%
    13:00 +19°C° 0 mm 3 mps 768 mmHg 64%
    14:00 +20°C° 0 mm 3 mps 768 mmHg 62%
    15:00 +20°C° 0 mm 3 mps 767 mmHg 59%
    16:00 +20°C° 0.1 mm 3 mps 767 mmHg 62%
    17:00 +19°C° 0.1 mm 3 mps 768 mmHg 65%
    18:00 +19°C° 0.1 mm 3 mps 768 mmHg 68%
    19:00 +19°C° 0.1 mm 4 mps 768 mmHg 70%
    20:00 +19°C° 0.1 mm 4 mps 767 mmHg 72%
    21:00 +19°C° 0.1 mm 4 mps 767 mmHg 74%
    22:00 +19°C° 0 mm 4 mps 767 mmHg 75%
    23:00 +19°C° 0 mm 4 mps 766 mmHg 76%

    30 September, Saturday

    Time Temperature Precipitation Wind Pressure Humidity
    00:00 +18°C° 0 mm 4 mps 766 mmHg 77%
    01:00 +18°C° 0 mm 4 mps 766 mmHg 77%
    02:00 +18°C° 0 mm 4 mps 765 mmHg 77%
    03:00 +18°C° 0 mm 4 mps 765 mmHg 77%
    04:00 +18°C° 0 mm 4 mps 765 mmHg 77%
    05:00 +18°C° 0 mm 4 mps 765 mmHg 77%
    06:00 +18°C° 0 mm 4 mps 765 mmHg 76%
    07:00 +18°C° 0 mm 4 mps 765 mmHg 73%
    08:00 +19°C° 0 mm 4 mps 765 mmHg 69%
    09:00 +20°C° 0 mm 4 mps 764 mmHg 66%
    10:00 +21°C° 0 mm 4 mps 764 mmHg 63%
    11:00 +23°C° 0 mm 4 mps 763 mmHg 61%
    12:00 +25°C° 0 mm 3 mps 763 mmHg 58%
    13:00 +25°C° 0.1 mm 4 mps 762 mmHg 59%
    14:00 +25°C° 0.1 mm 4 mps 762 mmHg 59%
    15:00 +26°C° 0.1 mm 4 mps 762 mmHg 60%
    16:00 +25°C° 0.6 mm 4 mps 761 mmHg 66%
    17:00 +23°C° 0.6 mm 4 mps 761 mmHg 72%
    18:00 +22°C° 0.6 mm 4 mps 761 mmHg 77%
    19:00 +22°C° 0.5 mm 4 mps 761 mmHg 78%
    20:00 +22°C° 0.5 mm 4 mps 761 mmHg 78%
    21:00 +22°C° 0.5 mm 3 mps 761 mmHg 79%
    22:00 +22°C° 0 mm 3 mps 761 mmHg 79%
    23:00 +22°C° 0 mm 3 mps 761 mmHg 79%

    1 October, Sunday

    Time Temperature Precipitation Wind Pressure Humidity
    00:00 +21°C° 0 mm 3 mps 761 mmHg 79%
    01:00 +21°C° 0 mm 4 mps 761 mmHg 80%
    02:00 +21°C° 0 mm 4 mps 761 mmHg 81%
    03:00 +20°C° 0 mm 4 mps 761 mmHg 82%
    04:00 +20°C° 0 mm 5 mps 761 mmHg 83%
    05:00 +19°C° 0 mm 5 mps 762 mmHg 83%
    06:00 +19°C° 0 mm 6 mps 762 mmHg 83%
    07:00 +20°C° 0 mm 6 mps 762 mmHg 72%
    08:00 +22°C° 0 mm 6 mps 763 mmHg 61%
    09:00 +23°C° 0 mm 6 mps 763 mmHg 50%
    10:00 +26°C° 0 mm 6 mps 763 mmHg 46%
    11:00 +27°C° 0 mm 5 mps 763 mmHg 42%
    12:00 +28°C° 0 mm 5 mps 763 mmHg 37%
    13:00 +29°C° 0 mm 4 mps 763 mmHg 37%
    14:00 +29°C° 0 mm 4 mps 763 mmHg 36%
    15:00 +29°C° 0 mm 4 mps 762 mmHg 35%
    16:00 +28°C° 0 mm 4 mps 763 mmHg 44%
    17:00 +26°C° 0 mm 4 mps 763 mmHg 52%
    18:00 +23°C° 0 mm 5 mps 763 mmHg 61%
    19:00 +23°C° 0 mm 4 mps 763 mmHg 64%
    20:00 +22°C° 0 mm 4 mps 764 mmHg 67%
    21:00 +22°C° 0 mm 3 mps 764 mmHg 70%
    22:00 +22°C° 0 mm 3 mps 764 mmHg 70%
    23:00 +21°C° 0 mm 3 mps 763 mmHg 70%
    Show more